Weather History for KGEG - October, 2011

Change the Weather History Date:

Monday, October 10, 2011

  Actual Average Record
Temperature  
Mean Temperature 50 °F 50 °F  
Max Temperature 54 °F 61 °F 84 °F (1934)
Min Temperature 45 °F 39 °F 23 °F (2009)
Degree Days  
Heating Degree Days 15 15  
Month to date heating degree days 121 131  
Since 1 July heating degree days 268 379  
Cooling Degree Days 0 0  
Month to date cooling degree days 0 0  
Year to date cooling degree days 426 449  
Moisture  
Dew Point 46 °F    
Average Humidity 86    
Maximum Humidity 100    
Minimum Humidity 71    
Precipitation  
Precipitation 0.04 in 0.03 in 1.02 in (1882)
Month to date precipitation 0.50 0.25  
Year to date precipitation 12.43 11.03  
Snow  
Snow 0.00 in 0.00 in T in (1955)
Month to date snowfall 0.0 0.0  
Since 1 July snowfall 0.0 0.0  
Since 1 September snowfall 0.0 0.0  
Snow Depth 0.00 in    
Sea Level Pressure  
Sea Level Pressure 29.68 in    
Wind  
Wind Speed 7 mph (SE)    
Max Wind Speed 20 mph    
Max Gust Speed 24 mph    
Visibility 8 miles    
Events Rain    
T = Trace of Precipitation, MM = Missing Value Source: NWS Daily Summary

Daily Weather History Graph

Daily Weather History Graph

Search for Another Location

Airport or City:

Trip Planner

Search our weather history database for the weather conditions in past years. The results will help you decide how hot, cold, wet, or windy it might be!

Date:

Astronomy

Oct. 10, 2011 Rise Set
Actual Time 7:01 AM PDT 6:11 PM PDT
Civil Twilight 6:30 AM PDT 6:42 PM PDT
Nautical Twilight 5:54 AM PDT 7:18 PM PDT
Astronomical Twilight 5:19 AM PDT 7:54 PM PDT
Moon 5:17 PM PDT (10/10) 5:45 AM PDT (10/10)
Length of Visible Light 12h 12m
Length of Day
11h 10m
Waxing Gibbous, 98% of the Moon is Illuminated
Oct 10
Waxing Gibbous
Oct 11
Full
Oct 19
Last Quarter
Oct 26
New
Nov 2
First Quarter

Hourly Weather History & Observations

Time (PDT) Temp. Windchill Dew Point Humidity Pressure Visibility Wind Dir Wind Speed Gust Speed Precip Events Conditions
12:53 AM 48.0 °F - 44.1 °F 86% 29.85 in 10.0 mi Calm Calm - 0.00 in Rain Light Rain
1:53 AM 46.9 °F - 44.1 °F 90% 29.84 in 10.0 mi ENE 4.6 mph - 0.01 in   Mostly Cloudy
2:53 AM 46.0 °F 42.5 °F 44.1 °F 93% 29.82 in 10.0 mi ENE 6.9 mph - N/A   Overcast
3:53 AM 46.0 °F - 44.1 °F 93% 29.81 in 10.0 mi Calm Calm - N/A   Overcast
4:53 AM 46.0 °F 43.9 °F 44.1 °F 93% 29.78 in 10.0 mi ENE 4.6 mph - N/A   Overcast
5:53 AM 44.6 °F 42.2 °F 44.6 °F 100% 29.76 in 10.0 mi NE 4.6 mph - N/A   Overcast
6:53 AM 45.0 °F 42.6 °F 44.1 °F 97% 29.75 in 10.0 mi East 4.6 mph - N/A   Overcast
7:53 AM 46.0 °F 43.9 °F 44.1 °F 93% 29.73 in 10.0 mi East 4.6 mph - N/A   Overcast
8:53 AM 46.9 °F - 45.0 °F 93% 29.73 in 10.0 mi Calm Calm - N/A   Overcast
9:53 AM 50.0 °F - 45.0 °F 83% 29.71 in 10.0 mi East 3.5 mph - N/A   Mostly Cloudy
10:53 AM 52.0 °F - 46.0 °F 80% 29.68 in 10.0 mi ESE 5.8 mph - N/A   Overcast
11:53 AM 54.0 °F - 45.0 °F 72% 29.67 in 10.0 mi Variable 3.5 mph - N/A   Overcast
12:53 PM 54.0 °F - 46.0 °F 75% 29.65 in 9.0 mi ENE 3.5 mph - 0.00 in Rain Light Rain
1:53 PM 53.1 °F - 48.0 °F 83% 29.66 in 7.0 mi SW 8.1 mph - 0.02 in Rain Light Rain
2:53 PM 51.1 °F - 46.9 °F 86% 29.65 in 7.0 mi South 9.2 mph - 0.02 in Rain Light Rain
3:53 PM 51.1 °F - 48.0 °F 89% 29.65 in 10.0 mi South 6.9 mph - 0.00 in Rain Light Rain
4:40 PM 50.0 °F - 48.2 °F 94% 29.62 in 4.0 mi South 10.4 mph - 0.00 in   Overcast
4:53 PM 50.0 °F - 48.0 °F 93% 29.62 in 4.0 mi SSE 10.4 mph - 0.00 in   Overcast
4:58 PM 50.0 °F - 48.2 °F 94% 29.61 in 4.0 mi SSE 12.7 mph - N/A   Overcast
5:42 PM 50.0 °F - 48.2 °F 94% 29.61 in 4.0 mi South 13.8 mph 20.7 mph N/A   Overcast
5:53 PM 50.0 °F - 48.0 °F 93% 29.62 in 4.0 mi SSE 11.5 mph 19.6 mph N/A   Overcast
6:24 PM 50.0 °F - 48.2 °F 94% 29.61 in 7.0 mi SSE 11.5 mph - N/A   Overcast
6:53 PM 50.0 °F - 48.0 °F 93% 29.61 in 7.0 mi South 11.5 mph - N/A   Overcast
7:53 PM 51.1 °F - 48.0 °F 89% 29.62 in 10.0 mi South 6.9 mph - N/A   Overcast
8:53 PM 52.0 °F - 48.0 °F 86% 29.62 in 10.0 mi South 9.2 mph - N/A   Overcast
9:28 PM 51.8 °F - 48.2 °F 88% 29.61 in 10.0 mi South 9.2 mph - N/A   Overcast
9:53 PM 50.0 °F - 48.0 °F 93% 29.62 in 10.0 mi SSE 9.2 mph - N/A   Mostly Cloudy
10:53 PM 52.0 °F - 46.9 °F 83% 29.61 in 10.0 mi SSW 15.0 mph - N/A   Mostly Cloudy
11:53 PM 51.1 °F - 46.9 °F 86% 29.61 in 10.0 mi SSW 15.0 mph - 0.00 in   Light Drizzle